TimeEST,TemperatureF,Dew PointF,Humidity,Sea Level PressureIn,VisibilityMPH,Wind Direction,Wind SpeedMPH,Gust SpeedMPH,PrecipitationIn,Events,Conditions,WindDirDegrees,DateUTC
12:53 AM,19.9,17.1,89,29.82,10.0,NNW,6.9,-,N/A,,Overcast,330,2013-12-15 05:53:00
1:19 AM,19.4,15.8,86,29.79,10.0,NW,5.8,-,N/A,,Mostly Cloudy,320,2013-12-15 06:19:00
1:53 AM,19.9,16.0,85,29.83,10.0,NW,8.1,-,N/A,,Overcast,320,2013-12-15 06:53:00
2:31 AM,19.4,15.8,86,29.81,10.0,NW,8.1,-,N/A,,Overcast,320,2013-12-15 07:31:00
2:53 AM,19.0,16.0,88,29.85,10.0,WNW,8.1,-,N/A,,Overcast,300,2013-12-15 07:53:00
3:05 AM,19.4,15.8,86,29.81,10.0,WNW,8.1,-,N/A,,Overcast,300,2013-12-15 08:05:00
3:53 AM,19.9,16.0,85,29.86,10.0,WNW,10.4,-,N/A,,Overcast,290,2013-12-15 08:53:00
4:53 AM,19.9,17.1,89,29.86,10.0,WNW,9.2,-,N/A,,Overcast,290,2013-12-15 09:53:00
5:37 AM,19.4,17.6,93,29.83,10.0,WNW,10.4,-,N/A,,Overcast,290,2013-12-15 10:37:00
5:53 AM,19.9,17.1,89,29.87,9.0,West,8.1,-,N/A,,Overcast,280,2013-12-15 10:53:00
6:53 AM,19.9,17.1,89,29.86,8.0,WSW,5.8,-,N/A,,Overcast,250,2013-12-15 11:53:00
7:53 AM,19.9,17.1,89,29.86,4.0,WSW,8.1,-,0.00,Snow,Light Snow,240,2013-12-15 12:53:00
8:35 AM,21.2,17.6,86,29.82,2.5,SW,6.9,-,0.00,Snow,Light Snow,230,2013-12-15 13:35:00
8:53 AM,21.0,17.1,85,29.86,2.0,SW,8.1,-,0.00,Snow,Light Snow,220,2013-12-15 13:53:00
9:27 AM,21.2,17.6,86,29.82,1.8,WSW,8.1,-,0.00,Snow,Light Snow,240,2013-12-15 14:27:00
9:36 AM,21.2,17.6,86,29.82,2.5,WSW,9.2,-,0.00,Snow,Light Snow,240,2013-12-15 14:36:00
9:53 AM,21.9,19.0,89,29.86,2.0,SW,8.1,-,0.00,Snow,Light Snow,230,2013-12-15 14:53:00
10:34 AM,23.0,19.4,86,29.81,2.5,SW,9.2,-,0.00,Snow,Light Snow,230,2013-12-15 15:34:00
10:53 AM,24.1,19.9,84,29.84,1.5,WSW,12.7,-,0.00,Snow,Light Snow,240,2013-12-15 15:53:00
11:14 AM,24.8,19.4,80,29.80,2.0,SW,12.7,-,0.00,Snow,Light Snow,230,2013-12-15 16:14:00
11:46 AM,24.8,19.4,80,29.80,1.2,WSW,19.6,26.5,0.00,Snow,Light Snow,250,2013-12-15 16:46:00
11:53 AM,24.1,18.0,77,29.83,1.0,WSW,20.7,26.5,0.00,Snow,Light Snow,250,2013-12-15 16:53:00
12:08 PM,23.0,17.6,80,29.80,1.8,WSW,20.7,-,0.00,Snow,Light Snow,250,2013-12-15 17:08:00
12:19 PM,23.0,17.6,80,29.80,2.0,WSW,18.4,27.6,0.00,Snow,Light Snow,250,2013-12-15 17:19:00
12:35 PM,23.0,17.6,80,29.80,1.5,WSW,18.4,-,0.00,Snow,Light Snow,250,2013-12-15 17:35:00
12:43 PM,21.2,17.6,86,29.80,1.2,West,18.4,26.5,0.00,Snow,Light Snow,260,2013-12-15 17:43:00
12:53 PM,21.9,17.1,82,29.83,1.2,West,19.6,-,0.00,Snow,Light Snow,260,2013-12-15 17:53:00
1:07 PM,21.2,17.6,86,29.79,2.0,West,17.3,-,0.00,Snow,Light Snow,260,2013-12-15 18:07:00
1:18 PM,21.2,17.6,86,29.79,5.0,WSW,17.3,-,0.00,Snow,Light Snow,250,2013-12-15 18:18:00
1:53 PM,21.9,16.0,78,29.84,8.0,West,12.7,-,0.00,,Overcast,260,2013-12-15 18:53:00
2:12 PM,21.2,14.0,74,29.81,9.0,West,17.3,25.3,N/A,,Overcast,280,2013-12-15 19:12:00
2:53 PM,21.0,15.1,78,29.86,3.0,West,15.0,-,0.00,Snow,Light Snow,260,2013-12-15 19:53:00
3:01 PM,21.2,15.8,80,29.83,2.5,West,15.0,-,0.00,Snow,Light Snow,260,2013-12-15 20:01:00
3:09 PM,21.2,15.8,80,29.83,4.0,West,18.4,24.2,0.00,Snow,Light Snow,270,2013-12-15 20:09:00
3:53 PM,21.0,14.0,74,29.88,2.5,West,17.3,-,0.00,Snow,Light Snow,280,2013-12-15 20:53:00
4:00 PM,21.2,14.0,74,29.85,5.0,West,15.0,23.0,0.00,Snow,Light Snow,280,2013-12-15 21:00:00
4:14 PM,21.2,12.2,68,29.86,6.0,West,21.9,31.1,0.00,Snow,Light Snow,270,2013-12-15 21:14:00
4:53 PM,19.9,12.0,71,29.92,6.0,West,21.9,28.8,0.00,Snow,Light Snow,280,2013-12-15 21:53:00
5:53 PM,19.0,8.1,62,29.94,10.0,WNW,12.7,25.3,0.00,,Overcast,290,2013-12-15 22:53:00
6:53 PM,19.0,9.0,65,29.96,10.0,WNW,15.0,-,0.00,,Overcast,290,2013-12-15 23:53:00
7:53 PM,18.0,10.0,71,29.99,9.0,West,11.5,-,0.00,,Overcast,280,2013-12-16 00:53:00
8:53 PM,18.0,7.0,62,30.01,10.0,WNW,9.2,-,N/A,,Overcast,290,2013-12-16 01:53:00
9:53 PM,18.0,7.0,62,30.03,10.0,WNW,11.5,-,0.00,,Overcast,290,2013-12-16 02:53:00
10:53 PM,17.1,7.0,65,30.04,10.0,West,10.4,-,N/A,,Overcast,280,2013-12-16 03:53:00
11:53 PM,15.1,10.0,80,30.05,6.0,WSW,9.2,-,N/A,,Haze,240,2013-12-16 04:53:00